SCP
0 0 0 0 0 0 0 0 0 0 0 0 0 0 0 0 0 0 -0 -0 -0 -0 -0 -0 -0 -0 -0 -0 -0 -0 -0 -0 -0 -0 -0 -0 -0 -0 -0 -0 -0 -0 0 0 0 0 0 0 0
0 0 0 0 -0 0 0 0 0 0 0 0 0 0 -0 -0 -0 -0 0 0 0 0 0 0 0 0 0 -0 -0 -0 -0 -0 -0 -0 -0 -0 -0 -0 0 0 0 0 0 0 0 0 0 0 0
-0 0 0 -0 -0 0 0 -0 0 0 0 0 0 -0 0 0 -0 -0 0 0 0 0 0 0 0 0 -0 -0 -0 -0 -0 -0 -0 -0 -0 -0 -0 0 0 0 0 0 0 0 0 0 0 0 0
0 0 0 -0 0 -0 -0 0 0 0 0 0 0 -0 0 0 0 0 0 0 0 0 0 0 0 0 0 0 0 0 0 0 0 0 0 0 0 0 0 0 0 0 0 0 0 0 0 0 0
0 0 0 0 0 -0 -0 0 0 0 0 0 0 -0 0 0 0 0 0 0 0 0 0 0 0 0 0 0 0 0 0 0 0 0 0 0 0 0 0 0 0 0 0 0 0 0 0 0 0
0 0 0 0 0 -0 -0 0 0 0 0 0 0 0 0 0 0 0 0 0 0 0 0 0 0 0 0 0 0 0 0 0 0 0 0 0 0 0 0 0 0 0 0 0 0 0 0 0 0
-0 0 0 0 -0 -0 -0 0 0 0 0 0 -0 0 0 0 0 0 0 0 0 0 0 0 0 0 0 0 0 0 0 0 0 0 0 0 0 0 0 0 0 0 0 0 0 0 0 0 0
0 0 -0 -0 -0 -0 0 0 0 0 0 0 0 0 0 0 0 0 0 0 0 0 0 0 0 0 0 0 0 0 0 0 0 0 0 0 0 0 0 0 0 0 0 0 0 0 0 0 0
0 0 -0 -0 0 0 0 0 0 0 0 0 0 0 0 -0 -0 0 0 0 0 0 0 0 0 0 0 0 0 0 0 0 0 0 0 0 0 0 0 0 0 0 0 0 0 0 0 0 0
0 0 -0 0 0 0 0 0 0 0 0 0 0 0 -0 -0 0 0 0 0 0 0 0 0 0 0 0 0 0 0 0 0 0 0 0 0 0 0 0 0 0 0 0 0 0 0 0 0 0
0 0 0 0 0 0 0 0 0 0 0 0 0 0 -0 0 0 0 0 0 0 0 0 0 0 0 0 0 0 0 0 0 0 0 0 0 0 0 0 0 0 0 0 0 0 0 0 0 0
0 0 0 0 0 0 0 0 0 0 0 0 0 -0 0 0 0 0 0 0 0 0 0 0 0 0 0 0 0 0 0 0 0 0 0 0 0 0 0 0 0 0 0 0 0 0 0 0 0
0 0 0 0 0 0 0 0 0 0 0 0 0 0 0 0 0 0 0 0 0 0 0 0 0 0 0 0 0 0 0 0 0 0 0 0 0 0 0 0 0 0 0 0 0 0 0 0 0
0 0 0 0 0 0 0 0 0 0 0 0 0 0 0 0 0 0 0 0 0 0 0 0 0 0 0 0 0 0 0 0 0 0 0 0 0 0 0 0 0 0 0 0 0 0 0 0 0
0 0 0 0 0 0 0 0 0 0 0 0 0 0 0 0 0 0 0 0 0 0 0 0 0 0 0 0 0 0 0 0 0 0 0 0 0 0 0 0 0 0 0 0 0 0 0 0 0
0 0 0 0 0 0 0 0 0 0 0 0 0 0 0 0 0 0 0 0 0 0 0 0 0 0 0 0 0 0 0 0 0 0 0 0 0 0 0 0 0 0 0 0 0 0 0 0 0
0 0 0 0 0 0 0 0 0 0 0 0 0 0 0 0 0 0 0 0 0 0 0 0 0 0 0 0 0 0 0 0 0 0 0 0 0 0 0 0 0 0 0 0 0 0 0 0 0
0 0 0 0 0 0 0 0 0 0 0 0 0 0 0 0 0 0 0 0 0 0 0 0 0 0 0 0 0 0 0 0 0 0 0 0 0 0 0 0 0 0 0 0 0 0 0 0 0
0 0 0 0 0 0 0 0 0 0 0 0 0 0 0 0 0 0 0 0 0 0 0 0 0 0 0 0 0 0 0 0 0 0 0 0 0 0 0 0 0 0 0 0 0 0 0 0 0
0 0 0 0 0 0 0 0 0 0 0 0 0 0 0 0 0 0 0 0 0 0 0 0 0 0 0 0 0 0 0 0 0 0 0 0 0 0 0 0 0 0 0 0 0 0 0 0 0
0 0 0 0 0 0 0 0 0 0 0 0 0 0 0 0 0 0 0 0 0 0 0 0 0 0 0 0 0 0 0 0 0 0 0 0 0 0 0 0 0 0 0 0 0 0 0 0 0
0 0 0 0 0 0 0 0 0 0 0 0 0 0 0 0 0 0 0 0 0 0 0 0 0 0 0 0 0 0 0 0 0 0 0 0 0 0 0 0 0 0 0 0 0 0 0 0 0
0 0 0 0 0 0 0 0 0 0 0 0 0 0 0 0 0 0 0 0 0 0 0 0 0 0 0 0 0 0 0 0 0 0 0 0 0 0 0 0 0 0 0 0 0 0 0 0 0
0 0 0 0 0 0 0 0 0 0 0 0 0 0 0 0 0 0 0 0 0 0 0 0 0 0 0 0 0 0 0 0 0 0 0 0 0 0 0 0 0 0 0 0 0 0 0 0 0
0 0 0 0 0 0 0 0 0 0 0 0 0 0 0 0 0 0 0 0 0 0 0 0 0 0 0 0 0 0 0 0 0 0 0 0 0 0 0 0 0 0 0 0 0 0 0 0 0
0 0 0 0 0 0 0 0 0 0 0 0 0 0 0 0 0 0 0 0 0 0 0 0 0 0 0 0 0 0 0 0 0 0 0 0 0 0 0 0 0 0 0 0 0 0 0 0 0
0 0 0 0 0 0 0 0 0 0 0 0 0 0 0 0 0 0 0 0 0 0 0 0 0 0 0 0 0 0 0 0 0 0 0 0 0 0 0 0 0 0 0 0 0 0 0 0 0
0 0 0 0 0 0 0 0 0 0 0 0 0 0 0 0 0 0 0 0 0 0 0 0 0 0 0 0 0 0 0 0 0 0 0 0 0 0 0 0 0 0 0 0 0 0 0 0 0
0 0 0 0 0 0 0 0 0 0 0 0 0 0 0 0 0 0 0 0 0 0 0 0 0 0 0 0 0 0 0 0 0 0 0 0 0 0 0 0 0 0 0 0 0 0 0 0 0
0 0 0 0 0 0 0 0 0 0 0 0 0 0 0 0 0 0 0 0 0 0 0 0 0 0 0 0 0 0 0 0 0 0 0 0 0 0 0 0 0 0 0 0 0 0 0 0 0
Wind_Speed_500mb
1 5 6 3 6 8 3 2 2 6 3 3 6 6 14 12 5 4 16 7 8 11 14 16 15 16 17 17 21 22 20 22 25 23 22 18 17 15 18 19 18 16 20 24 26 28 30 31 31
3 5 1 5 7 4 1 3 6 5 16 22 17 11 10 7 11 18 13 6 5 11 15 18 22 22 21 21 21 21 22 22 24 24 23 22 22 24 27 28 31 30 26 25 24 26 30 33 34
2 0 3 7 5 6 7 6 8 8 29 5 9 14 8 10 18 19 12 6 5 10 14 18 20 22 23 24 26 27 26 26 25 25 25 24 24 25 26 28 29 29 31 32 33 32 30 30 31
3 2 11 7 4 4 5 10 10 19 10 6 19 15 11 12 16 16 11 5 5 8 12 15 16 18 21 25 26 26 27 29 29 30 30 30 29 29 28 28 29 30 31 35 39 40 40 40 37
2 4 8 7 3 4 5 11 23 9 10 11 9 11 11 16 21 19 10 6 3 5 8 12 15 17 17 17 19 21 23 25 27 29 30 31 31 32 33 33 34 34 34 35 37 40 42 45 47
3 5 6 7 7 5 5 13 18 12 14 17 13 20 13 25 23 17 10 4 2 6 9 9 10 10 12 16 19 22 25 26 28 30 31 33 35 37 38 38 38 39 40 39 40 42 44 46 48
10 7 6 6 7 3 11 22 15 16 15 13 25 13 16 33 27 19 13 7 4 4 4 2 4 8 13 16 18 19 22 25 28 31 33 34 36 38 40 41 43 44 45 47 48 48 49 49 50
11 11 11 10 13 10 18 16 15 17 8 21 18 11 11 44 34 25 17 11 7 6 4 3 5 8 12 15 17 20 23 26 29 31 34 36 38 40 41 44 45 47 48 49 51 53 54 55 54
7 8 5 11 13 7 21 9 16 12 19 17 18 10 10 46 40 31 22 15 11 8 5 4 5 8 10 13 19 24 29 32 34 37 41 44 46 48 49 50 52 53 54 55 55 55 56 57 58
8 7 15 11 11 9 22 14 29 14 16 13 17 17 19 48 42 34 26 19 14 10 7 4 2 4 11 18 23 28 30 34 40 43 46 48 50 51 52 51 52 53 55 57 59 60 61 61 62
5 8 7 9 10 14 22 12 21 19 8 25 34 36 41 54 45 36 30 23 16 11 7 4 2 6 12 18 21 25 30 37 42 45 48 51 53 55 57 60 62 64 66 67 68 68 67 67 69
3 4 8 9 13 16 17 17 12 28 11 15 24 34 51 55 50 42 35 26 18 13 9 6 2 6 13 17 20 26 33 38 42 47 52 53 54 54 57 60 64 68 71 73 75 76 76 74 72
5 10 8 9 15 10 16 10 11 27 25 17 32 48 54 54 49 42 34 29 21 15 9 6 1 7 13 15 19 25 31 37 42 48 51 53 57 62 65 67 69 71 73 76 78 79 80 79 78
5 6 5 7 11 11 12 6 8 16 33 28 41 54 56 54 53 48 42 34 23 15 12 10 4 7 12 15 19 25 32 37 43 50 53 55 60 64 68 71 73 73 72 72 75 77 79 80 80
14 6 4 8 11 6 9 10 19 21 34 38 51 56 57 56 53 48 39 33 22 18 16 13 9 8 12 16 21 27 33 39 46 52 55 58 62 68 69 69 66 66 67 68 71 74 77 79 81
6 6 3 5 16 5 13 15 6 34 45 47 56 59 60 61 56 47 42 35 27 22 20 17 11 10 14 19 23 28 34 41 50 56 59 63 67 67 66 64 63 64 65 67 68 71 74 76 77
7 7 10 8 25 8 13 12 3 31 44 48 58 62 63 63 59 55 49 39 30 25 23 18 14 12 16 21 23 29 36 44 52 58 61 65 65 64 66 67 67 67 67 67 69 70 71 75 78
13 9 8 9 11 7 8 31 13 26 41 54 59 63 65 68 68 61 53 44 34 29 27 22 17 15 18 22 25 31 36 44 52 58 63 65 65 65 65 65 64 63 63 63 64 65 65 67 72
11 8 9 6 6 9 15 28 28 38 45 47 59 65 71 73 66 60 54 45 38 35 31 24 21 18 21 26 30 36 43 49 57 62 66 67 67 66 66 65 65 62 61 61 59 61 61 60 58
7 8 10 5 4 5 8 31 28 26 36 66 69 73 78 73 70 65 59 52 45 36 31 27 24 22 27 30 35 40 44 53 63 65 67 67 67 66 65 66 66 63 62 60 58 56 58 45 47
8 11 8 7 1 2 11 17 16 6 27 39 68 79 80 84 80 72 66 59 48 43 35 28 26 26 30 33 37 40 45 56 66 68 71 70 66 62 62 62 62 60 58 59 55 53 52 52 47
8 9 9 8 5 8 2 12 12 6 12 16 44 69 77 80 77 74 68 61 52 42 37 33 29 29 33 35 40 43 52 61 65 69 73 71 66 64 63 62 60 59 58 57 56 52 52 54 47
7 7 9 6 7 5 2 4 9 4 15 17 32 56 71 73 75 76 69 58 48 41 40 35 34 34 35 38 41 46 54 61 67 72 76 73 71 68 66 63 60 57 55 57 56 54 51 49 45
18 11 11 7 5 4 9 10 11 9 9 7 6 51 65 66 65 68 62 53 47 45 44 41 38 36 35 39 41 49 57 64 71 75 76 75 76 73 67 63 60 57 56 58 59 55 51 49 46
5 10 2 5 1 11 5 4 21 9 9 5 3 26 55 57 58 61 63 56 52 50 46 43 40 36 37 39 44 51 59 64 71 74 76 78 76 72 68 64 62 61 59 58 58 56 52 50 49
13 11 10 13 9 5 4 13 12 7 4 10 7 9 34 54 52 57 60 54 50 47 47 44 38 36 37 40 46 54 61 66 70 71 74 71 69 68 65 64 62 61 61 58 57 57 53 48 44
12 11 5 13 5 3 8 13 18 5 7 7 9 14 28 51 49 52 53 51 48 47 46 40 36 35 37 43 50 57 61 66 69 69 65 64 64 65 66 64 64 63 62 60 59 59 56 51 48
7 8 6 2 9 11 8 9 16 8 13 13 11 18 29 46 49 50 50 48 47 45 41 37 34 32 37 45 53 59 63 64 63 61 61 62 64 65 66 66 65 65 63 62 61 62 59 52 49
7 7 2 6 7 10 4 12 12 12 12 21 19 29 38 49 51 49 45 44 44 41 36 32 29 31 39 49 55 59 60 58 57 58 60 62 64 65 66 66 66 66 65 63 62 61 58 49 46
6 13 13 9 11 1 3 14 6 10 7 18 36 39 39 44 46 45 44 43 41 36 31 27 27 33 43 51 55 56 55 55 56 58 60 62 66 66 67 67 68 68 67 65 63 60 57 53 50
Wind_Direction_500mb
7 306 340 117 63 71 90 133 246 140 102 47 142 131 114 51 73 129 122 80 28 11 9 1 0 2 3 356 346 345 339 337 336 337 334 339 336 339 351 351 335 334 335 324 313 309 307 304 303
9 333 98 166 90 88 159 229 192 187 146 117 97 85 60 87 96 144 136 107 43 8 357 358 2 5 5 3 5 7 4 0 357 357 352 347 333 325 320 319 318 318 317 312 312 316 310 303 300
201 101 172 87 99 149 165 187 162 142 151 147 107 79 83 105 134 156 134 110 35 355 358 9 14 19 19 20 22 23 22 21 17 12 8 1 351 343 338 336 330 319 311 309 306 300 299 299 300
207 138 71 78 118 212 204 172 158 142 211 178 138 89 107 150 152 161 153 132 41 7 16 17 20 25 28 27 25 23 22 21 20 18 16 11 7 2 354 346 338 329 321 309 303 300 296 295 293
128 68 61 71 265 284 253 168 155 150 152 150 151 155 126 153 157 159 151 108 44 23 28 29 33 33 32 30 27 24 19 15 11 9 6 3 359 355 352 348 343 338 331 323 315 308 302 294 289
169 102 96 181 212 219 255 180 173 154 166 154 133 138 153 162 161 161 147 135 94 55 42 36 35 31 28 27 23 18 14 8 3 360 356 353 349 346 343 340 336 332 328 324 321 317 313 307 301
121 81 154 131 177 215 207 173 180 165 159 185 158 134 161 172 172 171 162 153 128 93 79 66 40 32 27 22 17 11 7 1 359 354 350 345 342 338 334 331 329 326 324 323 321 317 314 311 309
131 97 138 196 189 215 174 156 164 168 180 159 177 177 186 183 178 175 165 162 148 157 156 112 57 36 23 15 9 7 4 359 354 347 342 338 335 331 329 326 324 322 320 318 316 314 312 309 306
118 76 179 200 156 216 164 140 170 176 157 178 192 183 195 184 178 174 171 169 175 170 160 116 48 22 13 8 8 4 357 352 347 344 342 339 337 334 331 329 325 321 318 316 314 312 309 306 303
90 120 213 187 184 183 178 174 166 163 166 199 199 203 187 181 178 177 178 185 181 176 169 137 89 21 17 6 1 355 351 349 347 343 339 336 334 333 330 326 324 322 319 316 313 310 307 305 303
107 187 178 198 194 177 165 175 177 164 213 204 201 186 177 179 180 183 186 189 186 184 171 174 114 30 8 357 354 351 350 346 341 337 335 332 328 325 323 322 321 319 317 315 313 313 312 310 306
155 165 171 165 174 159 170 164 196 202 214 225 215 200 179 182 186 188 194 192 192 187 189 181 120 8 350 350 350 349 344 340 338 338 334 330 328 327 327 326 324 322 320 317 315 312 310 307 305
150 182 175 167 169 176 165 195 221 229 222 215 194 187 185 187 190 190 196 197 199 193 195 190 220 341 335 341 344 342 339 340 339 337 336 333 332 330 327 324 322 319 315 312 309 307 306 304 302
137 133 129 164 172 181 174 216 196 232 207 197 192 190 192 193 193 193 198 203 200 199 211 210 238 306 325 328 332 337 339 337 338 338 336 333 330 327 324 321 319 315 312 309 307 306 305 303 301
119 83 3 213 196 216 177 267 232 213 193 193 193 195 196 198 199 205 204 203 206 214 219 215 238 287 308 315 326 332 334 337 337 338 335 332 329 326 324 321 320 319 317 315 311 308 306 305 303
82 57 166 213 162 210 157 261 265 203 192 195 196 198 201 202 206 206 206 206 211 220 218 218 242 277 303 309 317 326 332 337 339 337 335 333 330 327 325 325 325 323 320 319 315 312 310 307 305
360 217 210 292 197 150 185 266 240 193 198 200 200 203 206 206 208 208 208 211 217 222 217 223 243 273 293 298 310 324 333 337 338 337 334 331 329 329 329 330 328 325 322 319 317 315 312 310 308
197 217 232 230 210 192 215 256 247 205 207 211 207 208 209 209 210 208 208 210 215 218 217 227 242 264 282 292 305 319 326 334 337 336 334 333 333 331 329 327 326 323 320 318 316 313 311 309 309
138 184 219 230 172 193 233 261 254 227 219 219 215 211 212 213 211 209 209 211 214 214 219 229 243 259 279 288 301 313 327 335 337 335 335 336 334 333 331 330 328 326 323 320 319 316 314 312 311
163 185 234 275 162 201 338 279 267 211 226 213 210 212 214 212 209 208 208 212 216 218 222 230 242 258 277 290 305 318 327 333 333 334 338 337 334 332 331 328 327 326 323 322 320 318 315 312 316
198 183 189 215 20 293 336 273 258 248 230 221 219 220 217 216 210 208 209 213 214 219 224 233 244 259 276 290 306 316 322 326 331 335 336 334 330 328 325 325 324 322 320 318 318 315 311 308 309
202 179 127 130 109 240 8 287 289 244 257 224 217 213 217 218 217 214 212 214 217 223 226 234 247 258 274 290 304 316 323 327 331 333 332 329 327 326 327 325 322 320 318 317 316 314 308 303 301
207 107 111 100 104 7 255 266 259 7 270 238 220 217 217 220 220 216 216 218 221 224 230 238 247 255 272 290 306 315 321 325 328 329 327 325 324 325 327 324 322 319 316 313 312 312 309 302 297
146 81 55 59 86 281 199 188 281 213 225 296 224 215 216 216 218 218 216 217 220 227 230 238 244 253 272 292 306 314 321 324 327 326 324 323 324 327 326 323 321 318 316 315 314 311 307 301 297
95 111 296 329 128 228 145 170 256 250 217 212 326 218 213 213 213 210 209 212 219 228 230 234 239 254 275 292 306 315 319 324 324 323 322 322 324 325 324 323 321 320 318 314 311 310 307 300 295
187 179 168 211 201 232 64 233 250 188 203 202 222 212 203 206 208 207 207 214 223 225 225 229 238 257 278 294 306 314 321 323 321 319 319 320 321 321 321 320 319 317 315 314 312 309 307 302 294
186 203 154 104 56 38 213 282 288 197 218 206 179 183 187 194 195 195 201 213 218 216 220 228 242 262 282 298 309 317 322 320 319 318 319 320 319 320 319 318 317 316 314 314 312 309 307 302 295
174 161 97 24 182 236 263 268 243 241 216 210 199 183 174 179 185 192 201 208 209 213 220 231 248 270 291 305 314 320 320 318 318 319 322 320 320 319 318 317 316 315 314 314 312 309 307 302 297
145 202 108 138 177 189 231 252 208 207 193 195 201 186 171 174 182 190 197 201 206 210 219 236 259 284 300 310 317 318 318 318 320 322 322 321 320 319 318 317 315 314 314 313 309 307 305 301 295
185 192 174 158 205 227 162 271 184 198 206 194 195 185 177 179 183 191 195 198 201 209 222 244 272 295 307 315 317 318 320 322 325 325 323 324 322 321 320 319 317 316 315 313 309 307 303 300 297
Wind_Speed_850mb
1 5 6 3 6 8 3 2 2 6 3 3 6 6 14 12 5 4 16 7 8 11 14 16 15 16 17 17 21 22 20 22 25 23 22 18 17 15 18 19 18 16 20 24 26 28 30 31 31
3 5 1 5 7 4 1 3 6 5 16 22 17 11 10 7 11 18 13 6 5 11 15 18 22 22 21 21 21 21 22 22 24 24 23 22 22 24 27 28 31 30 26 25 24 26 30 33 34
2 0 3 7 5 6 7 6 8 8 29 5 9 14 8 10 18 19 12 6 5 10 14 18 20 22 23 24 26 27 26 26 25 25 25 24 24 25 26 28 29 29 31 32 33 32 30 30 31
3 2 11 7 4 4 5 10 10 19 10 6 19 15 11 12 16 16 11 5 5 8 12 15 16 18 21 25 26 26 27 29 29 30 30 30 29 29 28 28 29 30 31 35 39 40 40 40 37
2 4 8 7 3 4 5 11 23 9 10 11 9 11 11 16 21 19 10 6 3 5 8 12 15 17 17 17 19 21 23 25 27 29 30 31 31 32 33 33 34 34 34 35 37 40 42 45 47
3 5 6 7 7 5 5 13 18 12 14 17 13 20 13 25 23 17 10 4 2 6 9 9 10 10 12 16 19 22 25 26 28 30 31 33 35 37 38 38 38 39 40 39 40 42 44 46 48
10 7 6 6 7 3 11 22 15 16 15 13 25 13 16 33 27 19 13 7 4 4 4 2 4 8 13 16 18 19 22 25 28 31 33 34 36 38 40 41 43 44 45 47 48 48 49 49 50
11 11 11 10 13 10 18 16 15 17 8 21 18 11 11 44 34 25 17 11 7 6 4 3 5 8 12 15 17 20 23 26 29 31 34 36 38 40 41 44 45 47 48 49 51 53 54 55 54
7 8 5 11 13 7 21 9 16 12 19 17 18 10 10 46 40 31 22 15 11 8 5 4 5 8 10 13 19 24 29 32 34 37 41 44 46 48 49 50 52 53 54 55 55 55 56 57 58
8 7 15 11 11 9 22 14 29 14 16 13 17 17 19 48 42 34 26 19 14 10 7 4 2 4 11 18 23 28 30 34 40 43 46 48 50 51 52 51 52 53 55 57 59 60 61 61 62
5 8 7 9 10 14 22 12 21 19 8 25 34 36 41 54 45 36 30 23 16 11 7 4 2 6 12 18 21 25 30 37 42 45 48 51 53 55 57 60 62 64 66 67 68 68 67 67 69
3 4 8 9 13 16 17 17 12 28 11 15 24 34 51 55 50 42 35 26 18 13 9 6 2 6 13 17 20 26 33 38 42 47 52 53 54 54 57 60 64 68 71 73 75 76 76 74 72
5 10 8 9 15 10 16 10 11 27 25 17 32 48 54 54 49 42 34 29 21 15 9 6 1 7 13 15 19 25 31 37 42 48 51 53 57 62 65 67 69 71 73 76 78 79 80 79 78
5 6 5 7 11 11 12 6 8 16 33 28 41 54 56 54 53 48 42 34 23 15 12 10 4 7 12 15 19 25 32 37 43 50 53 55 60 64 68 71 73 73 72 72 75 77 79 80 80
14 6 4 8 11 6 9 10 19 21 34 38 51 56 57 56 53 48 39 33 22 18 16 13 9 8 12 16 21 27 33 39 46 52 55 58 62 68 69 69 66 66 67 68 71 74 77 79 81
6 6 3 5 16 5 13 15 6 34 45 47 56 59 60 61 56 47 42 35 27 22 20 17 11 10 14 19 23 28 34 41 50 56 59 63 67 67 66 64 63 64 65 67 68 71 74 76 77
7 7 10 8 25 8 13 12 3 31 44 48 58 62 63 63 59 55 49 39 30 25 23 18 14 12 16 21 23 29 36 44 52 58 61 65 65 64 66 67 67 67 67 67 69 70 71 75 78
13 9 8 9 11 7 8 31 13 26 41 54 59 63 65 68 68 61 53 44 34 29 27 22 17 15 18 22 25 31 36 44 52 58 63 65 65 65 65 65 64 63 63 63 64 65 65 67 72
11 8 9 6 6 9 15 28 28 38 45 47 59 65 71 73 66 60 54 45 38 35 31 24 21 18 21 26 30 36 43 49 57 62 66 67 67 66 66 65 65 62 61 61 59 61 61 60 58
7 8 10 5 4 5 8 31 28 26 36 66 69 73 78 73 70 65 59 52 45 36 31 27 24 22 27 30 35 40 44 53 63 65 67 67 67 66 65 66 66 63 62 60 58 56 58 45 47
8 11 8 7 1 2 11 17 16 6 27 39 68 79 80 84 80 72 66 59 48 43 35 28 26 26 30 33 37 40 45 56 66 68 71 70 66 62 62 62 62 60 58 59 55 53 52 52 47
8 9 9 8 5 8 2 12 12 6 12 16 44 69 77 80 77 74 68 61 52 42 37 33 29 29 33 35 40 43 52 61 65 69 73 71 66 64 63 62 60 59 58 57 56 52 52 54 47
7 7 9 6 7 5 2 4 9 4 15 17 32 56 71 73 75 76 69 58 48 41 40 35 34 34 35 38 41 46 54 61 67 72 76 73 71 68 66 63 60 57 55 57 56 54 51 49 45
18 11 11 7 5 4 9 10 11 9 9 7 6 51 65 66 65 68 62 53 47 45 44 41 38 36 35 39 41 49 57 64 71 75 76 75 76 73 67 63 60 57 56 58 59 55 51 49 46
5 10 2 5 1 11 5 4 21 9 9 5 3 26 55 57 58 61 63 56 52 50 46 43 40 36 37 39 44 51 59 64 71 74 76 78 76 72 68 64 62 61 59 58 58 56 52 50 49
13 11 10 13 9 5 4 13 12 7 4 10 7 9 34 54 52 57 60 54 50 47 47 44 38 36 37 40 46 54 61 66 70 71 74 71 69 68 65 64 62 61 61 58 57 57 53 48 44
12 11 5 13 5 3 8 13 18 5 7 7 9 14 28 51 49 52 53 51 48 47 46 40 36 35 37 43 50 57 61 66 69 69 65 64 64 65 66 64 64 63 62 60 59 59 56 51 48
7 8 6 2 9 11 8 9 16 8 13 13 11 18 29 46 49 50 50 48 47 45 41 37 34 32 37 45 53 59 63 64 63 61 61 62 64 65 66 66 65 65 63 62 61 62 59 52 49
7 7 2 6 7 10 4 12 12 12 12 21 19 29 38 49 51 49 45 44 44 41 36 32 29 31 39 49 55 59 60 58 57 58 60 62 64 65 66 66 66 66 65 63 62 61 58 49 46
6 13 13 9 11 1 3 14 6 10 7 18 36 39 39 44 46 45 44 43 41 36 31 27 27 33 43 51 55 56 55 55 56 58 60 62 66 66 67 67 68 68 67 65 63 60 57 53 50
Wind_Direction_850mb
7 306 340 117 63 71 90 133 246 140 102 47 142 131 114 51 73 129 122 80 28 11 9 1 0 2 3 356 346 345 339 337 336 337 334 339 336 339 351 351 335 334 335 324 313 309 307 304 303
9 333 98 166 90 88 159 229 192 187 146 117 97 85 60 87 96 144 136 107 43 8 357 358 2 5 5 3 5 7 4 0 357 357 352 347 333 325 320 319 318 318 317 312 312 316 310 303 300
201 101 172 87 99 149 165 187 162 142 151 147 107 79 83 105 134 156 134 110 35 355 358 9 14 19 19 20 22 23 22 21 17 12 8 1 351 343 338 336 330 319 311 309 306 300 299 299 300
207 138 71 78 118 212 204 172 158 142 211 178 138 89 107 150 152 161 153 132 41 7 16 17 20 25 28 27 25 23 22 21 20 18 16 11 7 2 354 346 338 329 321 309 303 300 296 295 293
128 68 61 71 265 284 253 168 155 150 152 150 151 155 126 153 157 159 151 108 44 23 28 29 33 33 32 30 27 24 19 15 11 9 6 3 359 355 352 348 343 338 331 323 315 308 302 294 289
169 102 96 181 212 219 255 180 173 154 166 154 133 138 153 162 161 161 147 135 94 55 42 36 35 31 28 27 23 18 14 8 3 360 356 353 349 346 343 340 336 332 328 324 321 317 313 307 301
121 81 154 131 177 215 207 173 180 165 159 185 158 134 161 172 172 171 162 153 128 93 79 66 40 32 27 22 17 11 7 1 359 354 350 345 342 338 334 331 329 326 324 323 321 317 314 311 309
131 97 138 196 189 215 174 156 164 168 180 159 177 177 186 183 178 175 165 162 148 157 156 112 57 36 23 15 9 7 4 359 354 347 342 338 335 331 329 326 324 322 320 318 316 314 312 309 306
118 76 179 200 156 216 164 140 170 176 157 178 192 183 195 184 178 174 171 169 175 170 160 116 48 22 13 8 8 4 357 352 347 344 342 339 337 334 331 329 325 321 318 316 314 312 309 306 303
90 120 213 187 184 183 178 174 166 163 166 199 199 203 187 181 178 177 178 185 181 176 169 137 89 21 17 6 1 355 351 349 347 343 339 336 334 333 330 326 324 322 319 316 313 310 307 305 303
107 187 178 198 194 177 165 175 177 164 213 204 201 186 177 179 180 183 186 189 186 184 171 174 114 30 8 357 354 351 350 346 341 337 335 332 328 325 323 322 321 319 317 315 313 313 312 310 306
155 165 171 165 174 159 170 164 196 202 214 225 215 200 179 182 186 188 194 192 192 187 189 181 120 8 350 350 350 349 344 340 338 338 334 330 328 327 327 326 324 322 320 317 315 312 310 307 305
150 182 175 167 169 176 165 195 221 229 222 215 194 187 185 187 190 190 196 197 199 193 195 190 220 341 335 341 344 342 339 340 339 337 336 333 332 330 327 324 322 319 315 312 309 307 306 304 302
137 133 129 164 172 181 174 216 196 232 207 197 192 190 192 193 193 193 198 203 200 199 211 210 238 306 325 328 332 337 339 337 338 338 336 333 330 327 324 321 319 315 312 309 307 306 305 303 301
119 83 3 213 196 216 177 267 232 213 193 193 193 195 196 198 199 205 204 203 206 214 219 215 238 287 308 315 326 332 334 337 337 338 335 332 329 326 324 321 320 319 317 315 311 308 306 305 303
82 57 166 213 162 210 157 261 265 203 192 195 196 198 201 202 206 206 206 206 211 220 218 218 242 277 303 309 317 326 332 337 339 337 335 333 330 327 325 325 325 323 320 319 315 312 310 307 305
360 217 210 292 197 150 185 266 240 193 198 200 200 203 206 206 208 208 208 211 217 222 217 223 243 273 293 298 310 324 333 337 338 337 334 331 329 329 329 330 328 325 322 319 317 315 312 310 308
197 217 232 230 210 192 215 256 247 205 207 211 207 208 209 209 210 208 208 210 215 218 217 227 242 264 282 292 305 319 326 334 337 336 334 333 333 331 329 327 326 323 320 318 316 313 311 309 309
138 184 219 230 172 193 233 261 254 227 219 219 215 211 212 213 211 209 209 211 214 214 219 229 243 259 279 288 301 313 327 335 337 335 335 336 334 333 331 330 328 326 323 320 319 316 314 312 311
163 185 234 275 162 201 338 279 267 211 226 213 210 212 214 212 209 208 208 212 216 218 222 230 242 258 277 290 305 318 327 333 333 334 338 337 334 332 331 328 327 326 323 322 320 318 315 312 316
198 183 189 215 20 293 336 273 258 248 230 221 219 220 217 216 210 208 209 213 214 219 224 233 244 259 276 290 306 316 322 326 331 335 336 334 330 328 325 325 324 322 320 318 318 315 311 308 309
202 179 127 130 109 240 8 287 289 244 257 224 217 213 217 218 217 214 212 214 217 223 226 234 247 258 274 290 304 316 323 327 331 333 332 329 327 326 327 325 322 320 318 317 316 314 308 303 301
207 107 111 100 104 7 255 266 259 7 270 238 220 217 217 220 220 216 216 218 221 224 230 238 247 255 272 290 306 315 321 325 328 329 327 325 324 325 327 324 322 319 316 313 312 312 309 302 297
146 81 55 59 86 281 199 188 281 213 225 296 224 215 216 216 218 218 216 217 220 227 230 238 244 253 272 292 306 314 321 324 327 326 324 323 324 327 326 323 321 318 316 315 314 311 307 301 297
95 111 296 329 128 228 145 170 256 250 217 212 326 218 213 213 213 210 209 212 219 228 230 234 239 254 275 292 306 315 319 324 324 323 322 322 324 325 324 323 321 320 318 314 311 310 307 300 295
187 179 168 211 201 232 64 233 250 188 203 202 222 212 203 206 208 207 207 214 223 225 225 229 238 257 278 294 306 314 321 323 321 319 319 320 321 321 321 320 319 317 315 314 312 309 307 302 294
186 203 154 104 56 38 213 282 288 197 218 206 179 183 187 194 195 195 201 213 218 216 220 228 242 262 282 298 309 317 322 320 319 318 319 320 319 320 319 318 317 316 314 314 312 309 307 302 295
174 161 97 24 182 236 263 268 243 241 216 210 199 183 174 179 185 192 201 208 209 213 220 231 248 270 291 305 314 320 320 318 318 319 322 320 320 319 318 317 316 315 314 314 312 309 307 302 297
145 202 108 138 177 189 231 252 208 207 193 195 201 186 171 174 182 190 197 201 206 210 219 236 259 284 300 310 317 318 318 318 320 322 322 321 320 319 318 317 315 314 314 313 309 307 305 301 295
185 192 174 158 205 227 162 271 184 198 206 194 195 185 177 179 183 191 195 198 201 209 222 244 272 295 307 315 317 318 320 322 325 325 323 324 322 321 320 319 317 316 315 313 309 307 303 300 297